OneWeb SL0436

operational
NORAD ID: 51633 Int'l Des: 2022-012 Owner: ONEWEBN Country: UK Constellation: oneweb
LEOCIRCULARPOLARONEWEB_TYPE

关于 OneWeb SL0436

正在加载描述...

实时位置

正在加载3D地球...

即将过境

高度历史

Altitude vs Time

uPlot chart will show altitude changes over time

两行轨道根数

1 51633U 22012M 25354.15473571 .00000073 00000-0 15427-3 0 9999
2 51633 87.9114 41.4328 0001783 90.9710 269.1626 13.17648227190101
Epoch: Dec 20, 2025 • Age: 10 hours

当前状态

高度 1212.7 km
速度 7.25 km/s
星下点 -46.57°S, 75.43°W
发射日期 Feb 10, 2022
运行时间 3.8 years
类型 internet

技术详情

分类 Payload
质量 148.00 kg
干质量 140.00 kg
总质量 148.00 kg
长度 1.30 m
直径 1.00 m
跨度 5.00 m
形状 Trapezoid+2 pan
制造商 ONEWUS
平台类型 ARROW
阶段状态 In Orbit
所有者/国家 ONEWEBN/UK

大型星座

Loading constellations...